When you browse on this site, cookies collect data to enhance your experience and personalize the content and advertising you see.
Visit our Privacy Policy to learn more. By continuing to use the site, you agree to this use of cookies and data.
  • In Portugal
  • List of Countries
  • For 7 days
  • Water Temperature
  • Satellite Maps
  • Weather Map
  • Weather Widgets
  • user-avatar
    Login

    Hourly Weather Mazari Sharif

    Today, 24 May, Friday

    Time Temperature Precipitation Wind Pressure Humidity
    00:00 +13°C° 0.8 mm 1 mps 653 mmHg 66%
    01:00 +13°C° 0.8 mm 1 mps 653 mmHg 66%
    02:00 +13°C° 0.2 mm 1 mps 653 mmHg 67%
    03:00 +13°C° 0.2 mm 1 mps 653 mmHg 68%
    04:00 +13°C° 0 mm 1 mps 653 mmHg 70%
    05:00 +13°C° 0.1 mm 1 mps 653 mmHg 68%
    06:00 +13°C° 0.1 mm 1 mps 654 mmHg 65%
    07:00 +13°C° 0.1 mm 0 mps 654 mmHg 63%
    08:00 +15°C° 0 mm 1 mps 655 mmHg 57%
    09:00 +18°C° 0 mm 1 mps 655 mmHg 51%
    10:00 +18°C° 0 mm 2 mps 655 mmHg 47%
    11:00 +19°C° 0 mm 3 mps 656 mmHg 44%
    12:00 +19°C° 0 mm 3 mps 656 mmHg 41%
    13:00 +20°C° 0 mm 3 mps 656 mmHg 38%
    14:00 +20°C° 0 mm 3 mps 656 mmHg 37%
    15:00 +20°C° 0 mm 3 mps 656 mmHg 37%
    16:00 +20°C° 0 mm 3 mps 656 mmHg 36%
    17:00 +20°C° 0 mm 2 mps 657 mmHg 39%
    18:00 +19°C° 0 mm 2 mps 657 mmHg 42%
    19:00 +19°C° 0 mm 1 mps 657 mmHg 45%
    20:00 +19°C° 0 mm 1 mps 657 mmHg 47%
    21:00 +18°C° 0 mm 1 mps 657 mmHg 49%
    22:00 +18°C° 0 mm 1 mps 657 mmHg 51%
    23:00 +16°C° 0 mm 1 mps 657 mmHg 51%

    Tomorrow, 25 May, Saturday

    Time Temperature Precipitation Wind Pressure Humidity
    00:00 +16°C° 0 mm 1 mps 657 mmHg 51%
    01:00 +16°C° 0 mm 1 mps 656 mmHg 52%
    02:00 +16°C° 0 mm 1 mps 656 mmHg 51%
    03:00 +15°C° 0 mm 1 mps 656 mmHg 50%
    04:00 +15°C° 0 mm 1 mps 656 mmHg 49%
    05:00 +18°C° 0 mm 1 mps 657 mmHg 44%
    06:00 +19°C° 0 mm 1 mps 658 mmHg 38%
    07:00 +20°C° 0 mm 2 mps 658 mmHg 33%
    08:00 +21°C° 0 mm 2 mps 658 mmHg 31%
    09:00 +23°C° 0 mm 2 mps 658 mmHg 29%
    10:00 +24°C° 0 mm 2 mps 658 mmHg 27%
    11:00 +24°C° 0 mm 3 mps 658 mmHg 26%
    12:00 +25°C° 0 mm 3 mps 658 mmHg 25%
    13:00 +26°C° 0 mm 4 mps 658 mmHg 25%
    14:00 +26°C° 0 mm 4 mps 658 mmHg 25%
    15:00 +26°C° 0 mm 4 mps 658 mmHg 25%
    16:00 +26°C° 0 mm 4 mps 657 mmHg 25%
    17:00 +24°C° 0.1 mm 3 mps 657 mmHg 28%
    18:00 +22°C° 0.1 mm 3 mps 657 mmHg 30%
    19:00 +21°C° 0.1 mm 2 mps 657 mmHg 33%
    20:00 +20°C° 0.2 mm 2 mps 657 mmHg 36%
    21:00 +20°C° 0.2 mm 2 mps 657 mmHg 38%
    22:00 +20°C° 0.2 mm 1 mps 657 mmHg 41%
    23:00 +19°C° 0.1 mm 2 mps 657 mmHg 41%

    Day after tomorrow, 26 May, Sunday

    Time Temperature Precipitation Wind Pressure Humidity
    00:00 +19°C° 0.1 mm 2 mps 657 mmHg 41%
    01:00 +18°C° 0.1 mm 2 mps 657 mmHg 41%
    02:00 +18°C° 0 mm 2 mps 657 mmHg 42%
    03:00 +18°C° 0 mm 2 mps 657 mmHg 43%
    04:00 +17°C° 0 mm 2 mps 657 mmHg 44%
    05:00 +19°C° 0 mm 1 mps 657 mmHg 42%
    06:00 +20°C° 0 mm 1 mps 658 mmHg 40%
    07:00 +21°C° 0 mm 1 mps 658 mmHg 37%
    08:00 +22°C° 0 mm 1 mps 658 mmHg 36%
    09:00 +23°C° 0 mm 1 mps 659 mmHg 34%
    10:00 +23°C° 0 mm 1 mps 659 mmHg 32%
    11:00 +24°C° 0 mm 2 mps 659 mmHg 31%
    12:00 +25°C° 0 mm 2 mps 658 mmHg 30%
    13:00 +26°C° 0 mm 3 mps 658 mmHg 28%
    14:00 +26°C° 0.1 mm 3 mps 658 mmHg 28%
    15:00 +26°C° 0.1 mm 3 mps 658 mmHg 27%
    16:00 +26°C° 0.1 mm 3 mps 658 mmHg 27%
    17:00 +25°C° 0 mm 3 mps 658 mmHg 28%
    18:00 +24°C° 0 mm 3 mps 658 mmHg 30%
    19:00 +22°C° 0 mm 3 mps 657 mmHg 31%
    20:00 +23°C° 0 mm 2 mps 657 mmHg 32%
    21:00 +21°C° 0 mm 2 mps 657 mmHg 33%
    22:00 +20°C° 0 mm 2 mps 657 mmHg 33%
    23:00 +21°C° 0 mm 1 mps 657 mmHg 35%

    27 May, Monday

    Time Temperature Precipitation Wind Pressure Humidity
    00:00 +20°C° 0 mm 1 mps 656 mmHg 36%
    01:00 +19°C° 0 mm 1 mps 656 mmHg 38%
    02:00 +19°C° 0 mm 1 mps 656 mmHg 38%
    03:00 +18°C° 0 mm 1 mps 655 mmHg 38%
    04:00 +18°C° 0 mm 1 mps 655 mmHg 39%
    05:00 +19°C° 0 mm 1 mps 656 mmHg 34%
    06:00 +21°C° 0 mm 1 mps 657 mmHg 30%
    07:00 +23°C° 0 mm 1 mps 657 mmHg 26%
    08:00 +24°C° 0 mm 1 mps 657 mmHg 24%
    09:00 +25°C° 0 mm 1 mps 658 mmHg 22%
    10:00 +26°C° 0 mm 2 mps 658 mmHg 20%
    11:00 +27°C° 0 mm 2 mps 658 mmHg 19%
    12:00 +27°C° 0 mm 3 mps 658 mmHg 17%
    13:00 +28°C° 0 mm 3 mps 657 mmHg 16%
    14:00 +28°C° 0 mm 3 mps 657 mmHg 16%
    15:00 +28°C° 0 mm 3 mps 657 mmHg 16%
    16:00 +28°C° 0 mm 3 mps 657 mmHg 16%
    17:00 +27°C° 0 mm 2 mps 657 mmHg 18%
    18:00 +25°C° 0 mm 2 mps 657 mmHg 20%
    19:00 +24°C° 0 mm 1 mps 656 mmHg 22%
    20:00 +23°C° 0 mm 1 mps 656 mmHg 24%
    21:00 +22°C° 0 mm 1 mps 656 mmHg 26%
    22:00 +22°C° 0 mm 1 mps 656 mmHg 28%
    23:00 +21°C° 0 mm 1 mps 656 mmHg 28%

    28 May, Tuesday

    Time Temperature Precipitation Wind Pressure Humidity
    00:00 +20°C° 0 mm 1 mps 655 mmHg 28%
    01:00 +20°C° 0 mm 1 mps 655 mmHg 28%
    02:00 +19°C° 0 mm 1 mps 655 mmHg 28%
    03:00 +19°C° 0 mm 1 mps 655 mmHg 28%
    04:00 +19°C° 0 mm 1 mps 655 mmHg 28%
    05:00 +20°C° 0 mm 1 mps 656 mmHg 24%
    06:00 +22°C° 0 mm 1 mps 657 mmHg 21%
    07:00 +24°C° 0 mm 1 mps 657 mmHg 18%
    08:00 +25°C° 0 mm 1 mps 658 mmHg 17%
    09:00 +26°C° 0 mm 1 mps 658 mmHg 16%
    10:00 +27°C° 0 mm 1 mps 658 mmHg 15%
    11:00 +28°C° 0 mm 2 mps 658 mmHg 14%
    12:00 +29°C° 0 mm 2 mps 658 mmHg 14%
    13:00 +30°C° 0 mm 3 mps 658 mmHg 13%
    14:00 +30°C° 0 mm 3 mps 657 mmHg 14%
    15:00 +30°C° 0 mm 3 mps 657 mmHg 14%
    16:00 +30°C° 0 mm 3 mps 657 mmHg 14%
    17:00 +28°C° 0 mm 2 mps 657 mmHg 16%
    18:00 +27°C° 0 mm 2 mps 657 mmHg 18%
    19:00 +25°C° 0 mm 1 mps 656 mmHg 21%
    20:00 +25°C° 0 mm 1 mps 656 mmHg 22%
    21:00 +24°C° 0 mm 1 mps 656 mmHg 23%
    22:00 +23°C° 0 mm 1 mps 656 mmHg 24%
    23:00 +23°C° 0 mm 1 mps 656 mmHg 24%

    29 May, Wednesday

    Time Temperature Precipitation Wind Pressure Humidity
    00:00 +22°C° 0 mm 1 mps 655 mmHg 24%
    01:00 +22°C° 0 mm 1 mps 655 mmHg 24%
    02:00 +21°C° 0 mm 1 mps 655 mmHg 25%
    03:00 +20°C° 0 mm 1 mps 654 mmHg 26%
    04:00 +20°C° 0 mm 1 mps 654 mmHg 27%
    05:00 +22°C° 0 mm 1 mps 655 mmHg 24%
    06:00 +24°C° 0 mm 1 mps 656 mmHg 21%
    07:00 +25°C° 0 mm 1 mps 656 mmHg 18%
    08:00 +26°C° 0 mm 1 mps 657 mmHg 18%
    09:00 +27°C° 0 mm 1 mps 657 mmHg 17%
    10:00 +28°C° 0 mm 1 mps 657 mmHg 16%
    11:00 +29°C° 0 mm 2 mps 657 mmHg 16%
    12:00 +30°C° 0 mm 2 mps 656 mmHg 16%
    13:00 +30°C° 0 mm 3 mps 656 mmHg 15%
    14:00 +30°C° 0 mm 3 mps 656 mmHg 15%
    15:00 +30°C° 0 mm 3 mps 656 mmHg 16%
    16:00 +30°C° 0 mm 3 mps 655 mmHg 16%
    17:00 +29°C° 0 mm 2 mps 655 mmHg 18%
    18:00 +28°C° 0 mm 2 mps 655 mmHg 20%
    19:00 +26°C° 0 mm 1 mps 655 mmHg 22%
    20:00 +26°C° 0 mm 1 mps 655 mmHg 23%
    21:00 +25°C° 0 mm 1 mps 655 mmHg 24%
    22:00 +24°C° 0 mm 1 mps 655 mmHg 24%
    23:00 +24°C° 0 mm 1 mps 655 mmHg 25%
    Show more